Location: *
(51.0333°S, 178.4667°E)
Time: 18:30:45
(UTC+00:00)

STARLINK - Pass Details

Date: 15 November 2019
Orbit: 529 x 530 km, 53.0° (Epoch: 12 December)

Event Time Altitude Azimuth Distance (km) Brightness Sun altitude
Rises 09:50:13 0° 262° (W) 2,682 7.7 -15.7°
Reaches altitude 10° 09:52:27 10° 259° (WSW) 1,793 6.8 -15.8°
Maximum altitude 09:56:30 66° 175° (S) 589 3.9 -16.1°
Drops below altitude 10° 10:00:34 10° 92° (E) 1,794 6.0 -16.4°
Enters shadow 10:00:41 - 92° (E) 1,842 6.0 -16.4°
